| time (UTC) | temp C | wind direction | speed KPH | gust KPH | rain 1hr cm | rain 24hr cm | rain mn cm | humidity % | barometer mb |
| 20260504222803 | 10 | 135 | 0.0 | 0.0 | 0.00 | 0.00 | 0.00 | 78 | 1007.0 |
| 20260504222305 | 10 | 135 | 0.0 | 0.0 | 0.00 | 0.00 | 0.00 | 78 | 1007.2 |
| 20260504221803 | 10 | 135 | 0.0 | 0.0 | 0.00 | 0.00 | 0.00 | 77 | 1007.2 |
| 20260504221303 | 10 | 112 | 0.0 | 0.0 | 0.00 | 0.00 | 0.00 | 77 | 1007.2 |
| 20260504220803 | 10 | 112 | 0.0 | 0.0 | 0.00 | 0.00 | 0.00 | 77 | 1007.2 |
| 20260504220303 | 10 | 112 | 0.0 | 0.0 | 0.00 | 0.00 | 0.00 | 77 | 1007.2 |
| 20260504215803 | 10 | 135 | 0.0 | 0.0 | 0.00 | 0.00 | 0.00 | 77 | 1007.3 |
| 20260504215304 | 11 | 135 | 0.0 | 0.0 | 0.00 | 0.00 | 0.00 | 77 | 1007.3 |
| 20260504214804 | 11 | 45 | 0.0 | 0.0 | 0.00 | 0.00 | 0.00 | 77 | 1007.2 |
| 20260504214304 | 11 | 22 | 0.0 | 0.0 | 0.00 | 0.00 | 0.00 | 77 | 1007.2 |
| 20260504213804 | 11 | 22 | 0.0 | 0.0 | 0.00 | 0.00 | 0.00 | 76 | 1007.2 |
| 20260504213304 | 11 | 22 | 0.0 | 0.0 | 0.00 | 0.00 | 0.00 | 76 | 1007.3 |
| 20260504212804 | 11 | 22 | 0.0 | 0.0 | 0.00 | 0.00 | 0.00 | 76 | 1007.4 |
| 20260504212304 | 11 | 22 | 0.0 | 0.0 | 0.00 | 0.00 | 0.00 | 75 | 1007.4 |
| 20260504211804 | 11 | 22 | 0.0 | 0.0 | 0.00 | 0.00 | 0.00 | 75 | 1007.4 |
| 20260504211304 | 11 | 22 | 0.0 | 0.0 | 0.00 | 0.00 | 0.00 | 75 | 1007.3 |
| 20260504210804 | 11 | 22 | 0.0 | 0.0 | 0.00 | 0.00 | 0.00 | 75 | 1007.4 |
| 20260504210304 | 11 | 22 | 0.0 | 0.0 | 0.00 | 0.00 | 0.00 | 74 | 1007.3 |
| 20260504205804 | 11 | 22 | 0.0 | 0.0 | 0.00 | 0.00 | 0.00 | 74 | 1007.5 |
| 20260504205304 | 11 | 22 | 0.0 | 0.0 | 0.00 | 0.00 | 0.00 | 74 | 1007.3 |
| 20260504204804 | 12 | 22 | 0.0 | 0.0 | 0.00 | 0.00 | 0.00 | 74 | 1007.3 |
| 20260504204304 | 12 | 22 | 0.0 | 0.0 | 0.00 | 0.00 | 0.00 | 74 | 1007.4 |
| 20260504203804 | 12 | 22 | 0.0 | 0.0 | 0.00 | 0.00 | 0.00 | 74 | 1007.3 |
| 20260504203304 | 12 | 22 | 0.0 | 0.0 | 0.00 | 0.00 | 0.00 | 74 | 1007.3 |
| 20260504202804 | 12 | 292 | 0.0 | 0.0 | 0.00 | 0.00 | 0.00 | 73 | 1007.4 |
| 20260504202305 | 12 | 292 | 0.0 | 0.0 | 0.00 | 0.00 | 0.00 | 73 | 1007.5 |
| 20260504201804 | 12 | 292 | 0.0 | 0.0 | 0.00 | 0.00 | 0.00 | 73 | 1007.4 |
| 20260504201304 | 12 | 292 | 0.0 | 0.0 | 0.00 | 0.00 | 0.00 | 73 | 1007.5 |
| 20260504200804 | 12 | 292 | 0.0 | 0.0 | 0.00 | 0.00 | 0.00 | 74 | 1007.3 |
| 20260504200304 | 12 | 292 | 0.0 | 0.0 | 0.00 | 0.00 | 0.00 | 74 | 1007.6 |
| 20260504195804 | 12 | 292 | 0.0 | 3.2 | 0.00 | 0.00 | 0.00 | 74 | 1007.6 |
| 20260504195304 | 12 | 292 | 1.6 | 1.6 | 0.00 | 0.00 | 0.00 | 74 | 1007.4 |
| 20260504194804 | 12 | 292 | 1.6 | 3.2 | 0.00 | 0.00 | 0.00 | 74 | 1007.6 |
| 20260504194304 | 12 | 292 | 0.0 | 0.0 | 0.00 | 0.00 | 0.00 | 73 | 1007.4 |
| 20260504193804 | 12 | 0 | 0.0 | 0.0 | 0.00 | 0.00 | 0.00 | 73 | 1007.5 |
| 20260504193304 | 13 | 315 | 0.0 | 1.6 | 0.00 | 0.00 | 0.00 | 73 | 1007.5 |
| 20260504192804 | 13 | 292 | 1.6 | 1.6 | 0.00 | 0.00 | 0.00 | 73 | 1007.4 |
| 20260504192304 | 13 | 292 | 0.0 | 0.0 | 0.00 | 0.00 | 0.00 | 73 | 1007.3 |
| 20260504191804 | 13 | 337 | 0.0 | 1.6 | 0.00 | 0.00 | 0.00 | 73 | 1007.3 |
| 20260504191304 | 13 | 337 | 0.0 | 3.2 | 0.00 | 0.00 | 0.00 | 73 | 1007.4 |
| 20260504190804 | 13 | 337 | 0.0 | 0.0 | 0.00 | 0.00 | 0.00 | 72 | 1007.5 |
| 20260504190304 | 13 | 337 | 0.0 | 4.8 | 0.00 | 0.00 | 0.00 | 72 | 1007.3 |
| 20260504185804 | 13 | 292 | 3.2 | 4.8 | 0.00 | 0.00 | 0.00 | 72 | 1007.3 |
| 20260504185304 | 13 | 292 | 0.0 | 3.2 | 0.00 | 0.00 | 0.00 | 71 | 1007.2 |
| 20260504184804 | 13 | 292 | 3.2 | 4.8 | 0.00 | 0.00 | 0.00 | 71 | 1007.1 |
| 20260504184304 | 13 | 292 | 3.2 | 4.8 | 0.00 | 0.00 | 0.00 | 71 | 1007.1 |
| 20260504183804 | 13 | 292 | 1.6 | 3.2 | 0.00 | 0.00 | 0.00 | 70 | 1007.2 |
| 20260504183304 | 14 | 292 | 3.2 | 6.4 | 0.00 | 0.00 | 0.00 | 70 | 1007.2 |
| 20260504182804 | 14 | 292 | 3.2 | 6.4 | 0.00 | 0.00 | 0.00 | 69 | 1007.2 |
| 20260504182304 | 14 | 270 | 0.0 | 6.4 | 0.00 | 0.00 | 0.00 | 69 | 1007.2 |
| 20260504181804 | 15 | 270 | 3.2 | 6.4 | 0.00 | 0.00 | 0.00 | 69 | 1007.1 |
| 20260504181304 | 15 | 270 | 4.8 | 4.8 | 0.00 | 0.00 | 0.00 | 68 | 1006.9 |
| 20260504180804 | 15 | 292 | 1.6 | 3.2 | 0.00 | 0.00 | 0.00 | 68 | 1006.9 |
| 20260504180304 | 15 | 0 | 0.0 | 1.6 | 0.00 | 0.00 | 0.00 | 67 | 1006.8 |
| 20260504175804 | 15 | 292 | 0.0 | 0.0 | 0.00 | 0.00 | 0.00 | 67 | 1006.7 |
| 20260504175304 | 16 | 22 | 0.0 | 1.6 | 0.00 | 0.00 | 0.00 | 67 | 1006.7 |
| 20260504174804 | 16 | 22 | 0.0 | 0.0 | 0.00 | 0.00 | 0.00 | 67 | 1006.7 |
| 20260504174304 | 16 | 337 | 0.0 | 3.2 | 0.00 | 0.00 | 0.00 | 67 | 1006.8 |
| 20260504173804 | 16 | 270 | 3.2 | 3.2 | 0.00 | 0.00 | 0.00 | 67 | 1006.7 |
| 20260504173304 | 16 | 292 | 3.2 | 3.2 | 0.00 | 0.00 | 0.00 | 66 | 1006.7 |
| 20260504172804 | 16 | 337 | 1.6 | 3.2 | 0.00 | 0.00 | 0.00 | 66 | 1006.7 |
| 20260504172304 | 16 | 270 | 0.0 | 4.8 | 0.00 | 0.00 | 0.00 | 66 | 1006.6 |
| 20260504171804 | 16 | 292 | 4.8 | 8.0 | 0.00 | 0.00 | 0.00 | 66 | 1006.6 |
| 20260504171304 | 16 | 315 | 3.2 | 4.8 | 0.00 | 0.00 | 0.00 | 65 | 1006.6 |
| 20260504170804 | 17 | 270 | 0.0 | 9.7 | 0.00 | 0.00 | 0.00 | 65 | 1006.5 |
| 20260504170304 | 17 | 292 | 3.2 | 3.2 | 0.00 | 0.00 | 0.00 | 66 | 1006.5 |
| 20260504160304 | 17 | 270 | 1.6 | 4.8 | 0.00 | 0.00 | 0.00 | 63 | 1006.6 |
| 20260504150804 | 19 | 292 | 6.4 | 14.5 | 0.00 | 0.00 | 0.00 | 62 | 1006.4 |
| 20260504150304 | 18 | 270 | 3.2 | 11.3 | 0.00 | 0.00 | 0.00 | 62 | 1006.5 |
| 20260504141305 | 20 | 270 | 3.2 | 12.9 | 0.00 | 0.00 | 0.00 | 58 | 1006.4 |
| 20260504140805 | 20 | 270 | 8.0 | 16.1 | 0.00 | 0.00 | 0.00 | 57 | 1006.2 |
| 20260504140305 | 21 | 270 | 6.4 | 9.7 | 0.00 | 0.00 | 0.00 | 54 | 1006.2 |
| 20260504130805 | 21 | 270 | 3.2 | 6.4 | 0.00 | 0.00 | 0.00 | 53 | 1006.2 |
| 20260504130305 | 21 | 247 | 4.8 | 4.8 | 0.00 | 0.00 | 0.00 | 54 | 1006.2 |
| 20260504120305 | 21 | 270 | 0.0 | 6.4 | 0.00 | 0.00 | 0.00 | 54 | 1006.3 |
| 20260504110305 | 21 | 270 | 6.4 | 6.4 | 0.00 | 0.00 | 0.00 | 55 | 1006.2 |
| 20260504100305 | 20 | 270 | 8.0 | 8.0 | 0.00 | 0.00 | 0.00 | 57 | 1006.2 |
| 20260504081805 | 24 | 202 | 4.8 | 8.0 | 0.00 | 0.00 | 0.00 | 46 | 1005.6 |
| 20260504081305 | 25 | 180 | 0.0 | 6.4 | 0.00 | 0.00 | 0.00 | 46 | 1005.6 |
| 20260504080805 | 26 | 157 | 3.2 | 6.4 | 0.00 | 0.00 | 0.00 | 47 | 1005.6 |
| 20260504080305 | 25 | 180 | 1.6 | 6.4 | 0.00 | 0.00 | 0.00 | 47 | 1005.5 |
| 20260504070306 | 18 | 247 | 3.2 | 6.4 | 0.00 | 0.00 | 0.00 | 61 | 1005.7 |
| 20260504050306 | 15 | 202 | 0.0 | 0.0 | 0.00 | 0.00 | 0.00 | 66 | 1004.9 |
| 20260504045806 | 15 | 202 | 0.0 | 0.0 | 0.00 | 0.00 | 0.00 | 66 | 1005.0 |
| 20260504045306 | 15 | 202 | 0.0 | 0.0 | 0.00 | 0.00 | 0.00 | 66 | 1005.0 |
| 20260504044806 | 15 | 202 | 0.0 | 0.0 | 0.00 | 0.00 | 0.00 | 66 | 1005.1 |
| 20260504044306 | 15 | 180 | 0.0 | 0.0 | 0.00 | 0.00 | 0.00 | 66 | 1005.0 |
| 20260504043806 | 15 | 180 | 0.0 | 3.2 | 0.00 | 0.00 | 0.00 | 66 | 1005.1 |
| 20260504043306 | 14 | 225 | 0.0 | 0.0 | 0.00 | 0.00 | 0.00 | 66 | 1005.0 |
| 20260504042806 | 14 | 247 | 0.0 | 1.6 | 0.00 | 0.00 | 0.00 | 66 | 1005.0 |
| 20260504042306 | 14 | 270 | 0.0 | 3.2 | 0.00 | 0.00 | 0.00 | 65 | 1005.0 |
| 20260504041806 | 14 | 112 | 3.2 | 3.2 | 0.00 | 0.00 | 0.00 | 65 | 1004.9 |
| 20260504041306 | 14 | 202 | 0.0 | 6.4 | 0.00 | 0.00 | 0.00 | 65 | 1005.0 |
| 20260504040806 | 14 | 202 | 1.6 | 3.2 | 0.00 | 0.00 | 0.00 | 65 | 1004.8 |
| 20260504040306 | 14 | 225 | 0.0 | 0.0 | 0.00 | 0.00 | 0.00 | 65 | 1004.6 |
| 20260504035806 | 14 | 202 | 0.0 | 0.0 | 0.00 | 0.00 | 0.00 | 65 | 1004.6 |
| 20260504035306 | 14 | 180 | 0.0 | 0.0 | 0.00 | 0.00 | 0.00 | 65 | 1004.6 |
| 20260504034806 | 14 | 202 | 0.0 | 0.0 | 0.00 | 0.00 | 0.00 | 65 | 1004.5 |
| 20260504034306 | 14 | 157 | 0.0 | 0.0 | 0.00 | 0.00 | 0.00 | 65 | 1004.6 |
| 20260504033806 | 14 | 157 | 0.0 | 0.0 | 0.00 | 0.00 | 0.00 | 65 | 1004.5 |
| 20260504033306 | 14 | 157 | 0.0 | 0.0 | 0.00 | 0.00 | 0.00 | 64 | 1004.8 |
| 20260504032806 | 14 | 157 | 0.0 | 0.0 | 0.00 | 0.00 | 0.00 | 64 | 1004.7 |
| 20260504032306 | 14 | 202 | 0.0 | 0.0 | 0.00 | 0.00 | 0.00 | 64 | 1004.7 |
| 20260504031806 | 14 | 180 | 0.0 | 0.0 | 0.00 | 0.00 | 0.00 | 64 | 1004.6 |
| 20260504031306 | 14 | 180 | 0.0 | 0.0 | 0.00 | 0.00 | 0.00 | 64 | 1004.5 |
| 20260504030806 | 14 | 202 | 0.0 | 0.0 | 0.00 | 0.00 | 0.00 | 64 | 1004.6 |
| 20260504030306 | 14 | 180 | 0.0 | 0.0 | 0.00 | 0.00 | 0.00 | 65 | 1004.4 |
| 20260504025806 | 14 | 202 | 0.0 | 0.0 | 0.00 | 0.00 | 0.00 | 65 | 1004.4 |
| 20260504025306 | 13 | 202 | 0.0 | 0.0 | 0.00 | 0.00 | 0.00 | 65 | 1004.4 |
| 20260504024806 | 13 | 180 | 0.0 | 0.0 | 0.00 | 0.00 | 0.00 | 66 | 1004.1 |
| 20260504024306 | 13 | 180 | 0.0 | 0.0 | 0.00 | 0.00 | 0.00 | 66 | 1004.2 |
| 20260504023806 | 13 | 180 | 0.0 | 0.0 | 0.00 | 0.00 | 0.00 | 67 | 1004.3 |
| 20260504023306 | 13 | 202 | 0.0 | 0.0 | 0.00 | 0.00 | 0.00 | 67 | 1004.2 |
| 20260504022806 | 13 | 202 | 0.0 | 0.0 | 0.00 | 0.00 | 0.00 | 67 | 1004.3 |
| 20260504022306 | 13 | 157 | 0.0 | 0.0 | 0.00 | 0.00 | 0.00 | 68 | 1004.2 |
| 20260504021806 | 13 | 157 | 0.0 | 0.0 | 0.00 | 0.00 | 0.00 | 68 | 1004.1 |
| 20260504021306 | 13 | 157 | 0.0 | 0.0 | 0.00 | 0.00 | 0.00 | 69 | 1004.1 |
| 20260504020806 | 13 | 157 | 0.0 | 0.0 | 0.00 | 0.00 | 0.00 | 69 | 1004.1 |
| 20260504020306 | 13 | 157 | 0.0 | 0.0 | 0.00 | 0.00 | 0.00 | 69 | 1004.2 |
| 20260504015806 | 13 | 157 | 0.0 | 0.0 | 0.00 | 0.00 | 0.00 | 69 | 1004.2 |
| 20260504015306 | 13 | 180 | 0.0 | 0.0 | 0.00 | 0.00 | 0.00 | 69 | 1004.3 |
| 20260504014806 | 13 | 157 | 0.0 | 0.0 | 0.00 | 0.00 | 0.00 | 68 | 1004.3 |
| 20260504014306 | 13 | 157 | 0.0 | 0.0 | 0.00 | 0.00 | 0.00 | 68 | 1004.2 |
| 20260504013806 | 13 | 157 | 0.0 | 0.0 | 0.00 | 0.00 | 0.00 | 67 | 1004.4 |
| 20260504013306 | 13 | 157 | 0.0 | 0.0 | 0.00 | 0.00 | 0.00 | 67 | 1004.3 |
| 20260504012806 | 13 | 135 | 0.0 | 1.6 | 0.00 | 0.00 | 0.00 | 67 | 1004.4 |
| 20260504012306 | 13 | 135 | 0.0 | 1.6 | 0.00 | 0.00 | 0.00 | 67 | 1004.3 |
| 20260504011806 | 13 | 180 | 0.0 | 3.2 | 0.00 | 0.00 | 0.00 | 67 | 1004.4 |
| 20260504011306 | 13 | 180 | 0.0 | 3.2 | 0.00 | 0.00 | 0.00 | 67 | 1004.4 |
| 20260504010806 | 13 | 157 | 0.0 | 3.2 | 0.00 | 0.00 | 0.00 | 66 | 1004.4 |
| 20260504010306 | 13 | 157 | 0.0 | 1.6 | 0.00 | 0.00 | 0.00 | 66 | 1004.4 |
| 20260504005806 | 13 | 180 | 1.6 | 1.6 | 0.00 | 0.00 | 0.00 | 65 | 1004.4 |
| 20260504005306 | 13 | 180 | 0.0 | 1.6 | 0.00 | 0.00 | 0.00 | 66 | 1004.4 |
| 20260504004806 | 13 | 157 | 1.6 | 3.2 | 0.00 | 0.00 | 0.00 | 66 | 1004.3 |
| 20260504004306 | 13 | 180 | 0.0 | 0.0 | 0.00 | 0.00 | 0.00 | 64 | 1004.2 |
| 20260504003806 | 13 | 135 | 0.0 | 1.6 | 0.00 | 0.00 | 0.00 | 64 | 1004.1 |
| 20260504003307 | 13 | 180 | 1.6 | 1.6 | 0.00 | 0.00 | 0.00 | 63 | 1004.2 |
| 20260504002807 | 13 | 157 | 0.0 | 0.0 | 0.00 | 0.00 | 0.00 | 62 | 1004.2 |
| 20260504002306 | 13 | 112 | 0.0 | 0.0 | 0.00 | 0.00 | 0.00 | 62 | 1004.2 |
| 20260504001807 | 13 | 90 | 0.0 | 0.0 | 0.00 | 0.00 | 0.00 | 62 | 1004.1 |
| 20260504001307 | 13 | 67 | 0.0 | 1.6 | 0.00 | 0.00 | 0.00 | 62 | 1004.1 |
| 20260504000807 | 13 | 157 | 0.0 | 0.0 | 0.00 | 0.00 | 0.00 | 62 | 1004.1 |
| 20260504000307 | 13 | 270 | 0.0 | 1.6 | 0.00 | 0.00 | 0.00 | 62 | 1004.1 |
| 20260503235807 | 13 | 270 | 0.0 | 3.2 | 0.00 | 0.00 | 0.00 | 63 | 1004.0 |
| 20260503235307 | 13 | 270 | 1.6 | 3.2 | 0.00 | 0.00 | 0.00 | 63 | 1004.0 |
| 20260503234807 | 13 | 270 | 0.0 | 4.8 | 0.00 | 0.00 | 0.00 | 63 | 1004.0 |
| 20260503234307 | 13 | 270 | 0.0 | 3.2 | 0.00 | 0.00 | 0.00 | 63 | 1004.0 |
| 20260503233807 | 13 | 292 | 3.2 | 3.2 | 0.00 | 0.00 | 0.00 | 63 | 1004.0 |
| 20260503233307 | 13 | 270 | 0.0 | 3.2 | 0.00 | 0.00 | 0.00 | 63 | 1004.1 |
| 20260503232807 | 13 | 270 | 1.6 | 6.4 | 0.00 | 0.00 | 0.00 | 63 | 1004.1 |
| 20260503232307 | 14 | 292 | 3.2 | 4.8 | 0.00 | 0.00 | 0.00 | 63 | 1004.0 |
| 20260503231807 | 14 | 270 | 0.0 | 0.0 | 0.00 | 0.00 | 0.00 | 61 | 1003.9 |
| 20260503231307 | 14 | 157 | 0.0 | 3.2 | 0.00 | 0.00 | 0.00 | 61 | 1004.0 |
| 20260503230807 | 14 | 157 | 0.0 | 3.2 | 0.00 | 0.00 | 0.00 | 62 | 1004.1 |
| 20260503230307 | 14 | 180 | 1.6 | 3.2 | 0.00 | 0.00 | 0.00 | 62 | 1004.2 |
| 20260503225807 | 14 | 180 | 1.6 | 4.8 | 0.00 | 0.00 | 0.00 | 62 | 1004.1 |
| 20260503225307 | 14 | 180 | 3.2 | 9.7 | 0.00 | 0.00 | 0.00 | 63 | 1004.3 |
| 20260503224807 | 14 | 202 | 3.2 | 6.4 | 0.00 | 0.00 | 0.00 | 62 | 1004.1 |
| 20260503224307 | 14 | 202 | 4.8 | 6.4 | 0.00 | 0.00 | 0.00 | 61 | 1004.1 |
| 20260503223807 | 15 | 202 | 3.2 | 3.2 | 0.00 | 0.00 | 0.00 | 59 | 1004.1 |
| 20260503223307 | 15 | 202 | 0.0 | 0.0 | 0.00 | 0.00 | 0.00 | 58 | 1004.0 |